Time,TemperatureF,DewpointF,PressureIn,WindDirection,WindDirectionDegrees,WindSpeedMPH,WindSpeedGustMPH,Humidity,HourlyPrecipIn,Conditions,Clouds,dailyrainin,SoftwareType,DateUTC
2017-01-21 00:00:00,40.8,39.0,29.92,WSW,247,0.0,1.0,94,0.00,,,0.00,Rainwise IP-100,2017-01-21 05:00:00,
2017-01-21 00:05:00,41.3,39.0,29.92,WSW,247,0.0,0.0,94,0.00,,,0.00,Rainwise IP-100,2017-01-21 05:05:00,
2017-01-21 00:10:00,41.4,39.0,29.91,SW,225,1.2,1.2,94,0.00,,,0.00,Rainwise IP-100,2017-01-21 05:10:00,
2017-01-21 00:15:00,41.5,40.0,29.91,SSW,202,0.0,2.0,94,0.00,,,0.00,Rainwise IP-100,2017-01-21 05:15:00,
2017-01-21 00:20:00,41.7,40.1,29.91,SSW,201,1.8,2.5,94,-99.99,,,0.00,Rainwise +Telemet,2017-01-21 05:20:00,
2017-01-21 00:25:00,42.0,40.4,29.90,South,180,1.8,2.4,94,-99.99,,,0.00,Rainwise +Telemet,2017-01-21 05:25:00,
2017-01-21 00:30:00,42.4,40.0,29.91,SSE,157,1.6,2.0,94,0.00,,,0.00,Rainwise IP-100,2017-01-21 05:30:00,
2017-01-21 00:35:00,42.6,41.0,29.90,SSE,157,1.5,2.1,94,-99.99,,,0.00,Rainwise +Telemet,2017-01-21 05:35:00,
2017-01-21 00:40:00,42.6,41.0,29.90,SSE,157,2.2,3.1,94,-99.99,,,0.00,Rainwise +Telemet,2017-01-21 05:40:00,
2017-01-21 00:45:00,42.7,41.0,29.91,South,180,1.4,2.0,94,0.00,,,0.00,Rainwise IP-100,2017-01-21 05:45:00,
2017-01-21 00:50:00,42.7,41.1,29.90,South,180,1.9,2.6,94,-99.99,,,0.00,Rainwise +Telemet,2017-01-21 05:50:00,
2017-01-21 00:55:00,42.7,41.1,29.90,South,180,2.3,3.1,94,-99.99,,,0.00,Rainwise +Telemet,2017-01-21 05:55:00,
2017-01-21 01:00:00,42.8,42.0,29.91,SSW,202,2.6,4.0,95,0.00,,,0.00,Rainwise IP-100,2017-01-21 06:00:00,
2017-01-21 01:05:00,42.8,42.0,29.92,SSW,202,3.7,4.0,95,0.00,,,0.00,Rainwise IP-100,2017-01-21 06:05:00,
2017-01-21 01:10:00,42.8,42.0,29.91,SSW,202,3.3,5.0,95,0.00,,,0.00,Rainwise IP-100,2017-01-21 06:10:00,
2017-01-21 01:15:00,42.8,42.0,29.92,SSW,202,4.2,6.0,95,0.00,,,0.00,Rainwise IP-100,2017-01-21 06:15:00,
2017-01-21 01:21:00,42.8,42.0,29.92,SSW,202,2.3,5.0,95,0.00,,,0.00,Rainwise IP-100,2017-01-21 06:21:00,
2017-01-21 01:26:00,42.8,42.0,29.92,SW,225,3.3,5.0,95,0.00,,,0.00,Rainwise IP-100,2017-01-21 06:26:00,
2017-01-21 01:31:00,42.8,42.0,29.92,SSW,202,6.1,7.0,95,0.00,,,0.00,Rainwise IP-100,2017-01-21 06:31:00,
2017-01-21 01:36:00,42.7,42.0,29.92,SSW,202,2.6,7.0,95,0.00,,,0.00,Rainwise IP-100,2017-01-21 06:36:00,
2017-01-21 01:41:00,42.8,42.0,29.92,SSW,202,8.4,8.4,95,0.00,,,0.00,Rainwise IP-100,2017-01-21 06:41:00,
2017-01-21 01:46:00,42.8,42.0,29.93,South,180,4.2,9.0,95,0.00,,,0.00,Rainwise IP-100,2017-01-21 06:46:00,
2017-01-21 01:51:00,42.7,42.0,29.93,SSW,202,4.4,6.0,95,0.00,,,0.01,Rainwise IP-100,2017-01-21 06:51:00,
2017-01-21 01:57:00,42.7,42.0,29.93,SSW,202,3.0,4.0,95,0.06,,,0.01,Rainwise IP-100,2017-01-21 06:57:00,
2017-01-21 02:02:00,42.7,42.0,29.93,SSW,202,4.2,7.0,95,0.00,,,0.01,Rainwise IP-100,2017-01-21 07:02:00,
2017-01-21 02:07:00,42.8,42.0,29.93,SSW,202,4.7,6.0,95,0.00,,,0.01,Rainwise IP-100,2017-01-21 07:07:00,
2017-01-21 02:12:00,42.8,42.0,29.93,SSW,202,4.7,6.0,95,0.00,,,0.01,Rainwise IP-100,2017-01-21 07:12:00,
2017-01-21 02:17:00,42.7,42.0,29.93,SSW,202,4.4,6.0,95,0.00,,,0.01,Rainwise IP-100,2017-01-21 07:17:00,
2017-01-21 02:22:00,42.7,42.0,29.93,SSW,202,2.8,5.0,95,0.00,,,0.01,Rainwise IP-100,2017-01-21 07:22:00,
2017-01-21 02:27:00,42.7,42.0,29.92,SSW,202,4.0,5.0,95,0.00,,,0.01,Rainwise IP-100,2017-01-21 07:27:00,
2017-01-21 02:32:00,42.7,42.0,29.91,SSW,202,1.6,4.0,95,0.00,,,0.01,Rainwise IP-100,2017-01-21 07:32:00,
2017-01-21 02:38:00,42.7,42.0,29.91,South,180,2.6,4.0,95,0.00,,,0.01,Rainwise IP-100,2017-01-21 07:38:00,
2017-01-21 02:43:00,42.7,42.0,29.91,SSW,202,1.4,5.0,95,0.00,,,0.01,Rainwise IP-100,2017-01-21 07:43:00,
2017-01-21 02:48:00,42.7,42.0,29.91,SSW,202,1.9,3.0,95,0.00,,,0.01,Rainwise IP-100,2017-01-21 07:48:00,
2017-01-21 02:53:00,42.7,42.0,29.91,SSW,202,2.8,4.0,95,0.00,,,0.01,Rainwise IP-100,2017-01-21 07:53:00,
2017-01-21 02:58:00,42.7,42.0,29.91,SSW,202,2.6,5.0,95,0.00,,,0.01,Rainwise IP-100,2017-01-21 07:58:00,
2017-01-21 03:03:00,42.8,42.0,29.91,SW,225,2.8,4.0,95,0.00,,,0.01,Rainwise IP-100,2017-01-21 08:03:00,
2017-01-21 03:08:00,42.8,42.0,29.91,SW,225,3.7,5.0,95,0.00,,,0.01,Rainwise IP-100,2017-01-21 08:08:00,
2017-01-21 03:13:00,42.8,42.0,29.91,SW,225,4.2,6.0,95,0.00,,,0.01,Rainwise IP-100,2017-01-21 08:13:00,
2017-01-21 03:19:00,42.8,42.0,29.91,SSW,202,3.3,7.0,95,0.00,,,0.01,Rainwise IP-100,2017-01-21 08:19:00,
2017-01-21 03:24:00,42.8,42.0,29.91,SSW,202,3.5,7.0,95,0.00,,,0.01,Rainwise IP-100,2017-01-21 08:24:00,
2017-01-21 03:29:00,42.8,42.0,29.90,SSW,202,4.7,5.0,95,0.00,,,0.01,Rainwise IP-100,2017-01-21 08:29:00,
2017-01-21 03:34:00,42.8,42.0,29.90,SW,225,1.4,6.0,95,0.00,,,0.01,Rainwise IP-100,2017-01-21 08:34:00,
2017-01-21 03:39:00,42.7,42.0,29.90,SSW,202,2.8,6.0,95,0.00,,,0.01,Rainwise IP-100,2017-01-21 08:39:00,
2017-01-21 03:44:00,42.7,42.0,29.90,SSW,202,3.7,5.0,95,0.00,,,0.01,Rainwise IP-100,2017-01-21 08:44:00,
2017-01-21 03:50:00,42.7,41.4,29.90,SSW,209,3.5,4.9,95,-99.99,,,0.01,Rainwise +Telemet,2017-01-21 08:50:00,
2017-01-21 03:55:00,42.6,42.0,29.90,SSW,202,0.0,3.0,95,0.00,,,0.01,Rainwise IP-100,2017-01-21 08:55:00,
2017-01-21 04:01:00,42.5,42.0,29.89,SSW,202,1.6,0.0,95,0.00,,,0.01,Rainwise IP-100,2017-01-21 09:01:00,
2017-01-21 04:06:00,42.2,41.0,29.89,WSW,247,2.3,3.0,95,0.00,,,0.01,Rainwise IP-100,2017-01-21 09:06:00,
2017-01-21 04:11:00,41.9,41.0,29.89,WSW,247,2.3,3.0,95,0.00,,,0.01,Rainwise IP-100,2017-01-21 09:11:00,
2017-01-21 04:16:00,41.6,41.0,29.88,WSW,247,1.6,3.0,95,0.00,,,0.01,Rainwise IP-100,2017-01-21 09:16:00,
2017-01-21 04:21:00,41.6,41.0,29.88,WSW,247,1.4,1.4,95,0.00,,,0.01,Rainwise IP-100,2017-01-21 09:21:00,
2017-01-21 04:26:00,41.6,41.0,29.88,WSW,247,2.1,2.1,95,0.00,,,0.01,Rainwise IP-100,2017-01-21 09:26:00,
2017-01-21 04:31:00,41.6,41.0,29.88,WSW,247,0.0,3.0,96,0.00,,,0.01,Rainwise IP-100,2017-01-21 09:31:00,
2017-01-21 04:36:00,41.7,41.0,29.88,WSW,247,0.0,1.0,96,0.00,,,0.01,Rainwise IP-100,2017-01-21 09:36:00,
2017-01-21 04:42:00,41.8,41.0,29.88,WSW,247,0.0,0.0,96,0.00,,,0.01,Rainwise IP-100,2017-01-21 09:42:00,
2017-01-21 04:47:00,41.8,41.0,29.88,SW,225,1.9,2.0,96,0.00,,,0.01,Rainwise IP-100,2017-01-21 09:47:00,
2017-01-21 04:52:00,41.8,41.0,29.88,SSW,202,0.0,3.0,96,0.00,,,0.01,Rainwise IP-100,2017-01-21 09:52:00,
2017-01-21 04:57:00,41.8,41.0,29.88,SSW,202,0.0,2.0,96,0.00,,,0.01,Rainwise IP-100,2017-01-21 09:57:00,
2017-01-21 05:02:00,41.8,41.0,29.88,SSW,202,1.2,2.0,96,0.00,,,0.01,Rainwise IP-100,2017-01-21 10:02:00,
2017-01-21 05:07:00,41.8,41.0,29.88,SSW,202,1.2,1.2,96,0.00,,,0.01,Rainwise IP-100,2017-01-21 10:07:00,
2017-01-21 05:18:00,41.9,41.0,29.89,SSW,202,1.2,3.0,96,0.00,,,0.01,Rainwise IP-100,2017-01-21 10:18:00,
2017-01-21 05:23:00,41.9,41.0,29.89,SSW,202,1.6,3.0,96,0.00,,,0.01,Rainwise IP-100,2017-01-21 10:23:00,
2017-01-21 05:28:00,41.9,41.0,29.89,SSW,202,1.4,4.0,96,0.00,,,0.01,Rainwise IP-100,2017-01-21 10:28:00,
2017-01-21 05:33:00,42.0,41.0,29.89,SW,225,0.0,4.0,96,0.00,,,0.01,Rainwise IP-100,2017-01-21 10:33:00,
2017-01-21 05:38:00,42.0,41.0,29.89,South,180,2.6,4.0,96,0.00,,,0.01,Rainwise IP-100,2017-01-21 10:38:00,
2017-01-21 05:43:00,42.0,41.0,29.89,SSW,202,0.0,4.0,96,0.00,,,0.01,Rainwise IP-100,2017-01-21 10:43:00,
2017-01-21 05:48:00,42.1,41.0,29.89,SSW,202,4.4,5.0,96,0.00,,,0.01,Rainwise IP-100,2017-01-21 10:48:00,
2017-01-21 05:53:00,42.2,41.0,29.89,SSW,202,3.7,8.0,96,0.00,,,0.01,Rainwise IP-100,2017-01-21 10:53:00,
2017-01-21 05:59:00,42.4,41.0,29.89,South,180,3.5,9.0,95,0.00,,,0.01,Rainwise IP-100,2017-01-21 10:59:00,
2017-01-21 06:04:00,42.6,42.0,29.89,SSW,202,5.1,7.0,95,0.00,,,0.01,Rainwise IP-100,2017-01-21 11:04:00,
2017-01-21 06:09:00,42.7,42.0,29.88,SSW,202,7.9,10.0,95,0.00,,,0.01,Rainwise IP-100,2017-01-21 11:09:00,
2017-01-21 06:14:00,42.7,42.0,29.88,SSW,202,3.3,10.0,95,0.00,,,0.01,Rainwise IP-100,2017-01-21 11:14:00,